KD8CJ Weather Reports


time (UTC)temp
C
wind
direction
speed
KPH
gust
KPH
rain 1hr
cm
rain 24hr
cm
rain mn
cm
humidity
%
barometer
mb
20260506200023 13 283 1.6 6.4 0.00 3.86 2.11 52 1011.6
20260506194525 14 274 1.6 8.0 0.00 3.86 2.11 57 1011.3
20260506193016 14 330 0.0 6.4 0.00 3.91 2.11 58 1011.1
20260506191519 15 317 0.0 6.4 0.00 3.91 2.11 54 1011.4
20260506190019 15 296 1.6 9.7 0.00 4.01 2.11 51 1011.6
20260506184523 16 342 1.6 3.2 0.00 4.01 2.11 50 1011.3
20260506183026 14 131 1.6 9.7 0.00 4.01 2.11 51 1011.6
20260506181524 13 241 1.6 9.7 0.00 4.01 2.11 53 1011.7
20260506180020 15 231 1.6 8.0 0.00 4.01 2.11 55 1011.3
20260506174521 15 240 4.8 12.9 0.00 4.01 2.11 55 1011.4
20260506173027 15 272 1.6 6.4 0.00 4.01 2.11 54 1011.4
20260506171538 14 148 1.6 4.8 0.00 4.01 2.11 52 1011.5
20260506170016 14 94 1.6 4.8 0.00 4.01 2.11 60 1011.4
20260506164522 14 288 1.6 4.8 0.00 4.01 2.11 60 1011.2
20260506163022 13 254 3.2 8.0 0.00 4.01 2.11 65 1011.3
20260506161531 12 287 3.2 8.0 0.00 4.01 2.11 65 1011.2
20260506160040 12 103 0.0 4.8 0.00 4.01 2.11 68 1011.1
20260506154521 12 101 0.0 8.0 0.00 4.01 2.11 72 1010.7
20260506153021 11 10 1.6 6.4 0.00 4.01 2.11 75 1010.8
20260506151533 11 264 1.6 4.8 0.00 4.01 2.11 78 1010.5
20260506150031 11 305 1.6 6.4 0.00 4.01 2.11 82 1010.3
20260506144529 10 267 0.0 8.0 0.00 4.01 2.11 86 1010.3
20260506143019 9 115 0.0 3.2 0.00 4.01 2.11 85 1010.2
20260506141502 8 138 1.6 4.8 0.00 4.01 2.11 89 1010.1
20260506140007 8 274 1.6 6.4 0.00 4.01 2.11 90 1010.0
20260506134503 8 263 0.0 6.4 0.00 4.01 2.11 91 1009.7
20260506133005 8 230 0.0 4.8 0.00 4.01 2.11 92 1009.8
20260506131508 8 264 0.0 3.2 0.00 4.01 2.11 92 1009.3
20260506130006 8 239 0.0 1.6 0.00 4.01 2.11 94 1008.8
20260506124505 7 239 0.0 1.6 0.00 4.01 2.11 94 1008.8
20260506123004 7 129 0.0 0.0 0.00 4.01 2.11 94 1009.0
20260506121507 7 129 0.0 4.8 0.00 4.01 2.11 94 1009.0
20260506120006 7 267 0.0 1.6 0.00 4.01 2.11 95 1008.5
20260506114508 7 130 0.0 1.6 0.00 4.01 2.11 95 1008.3
20260506113005 7 130 0.0 0.0 0.00 4.01 2.11 95 1008.3
20260506111509 7 130 0.0 4.8 0.00 4.01 2.11 95 1007.9
20260506110007 7 123 0.0 3.2 0.03 4.01 2.11 95 1008.4
20260506104504 7 102 0.0 1.6 0.03 4.01 2.11 95 1007.8
20260506103010 7 102 0.0 1.6 0.05 4.01 2.11 94 1007.0
20260506101509 7 150 0.0 1.6 0.15 4.01 2.11 94 1006.8
20260506100008 6 62 0.0 3.2 0.23 3.99 2.08 94 1007.0
20260506094515 7 143 0.0 1.6 0.33 3.99 2.08 94 1007.0
20260506093009 7 72 0.0 1.6 0.41 3.96 2.06 94 1007.5
20260506091507 7 77 0.0 1.6 0.36 3.86 1.96 94 1007.6
20260506090009 7 77 0.0 3.2 0.25 3.76 1.85 94 1007.6
20260506084516 7 162 0.0 3.2 0.25 3.66 1.75 94 1007.8
20260506083008 7 87 0.0 1.6 0.28 3.56 1.65 94 1007.4
20260506081508 7 44 0.0 6.4 0.33 3.51 1.60 94 1007.0
20260506073013 8 138 0.0 4.8 0.46 3.28 1.37 94 1007.0
20260506071515 8 58 0.0 4.8 0.41 3.17 1.27 94 1006.6
20260506061512 9 116 0.0 1.6 0.41 2.77 0.86 94 1006.7
20260506044518 10 249 0.0 1.6 0.56 2.21 0.30 93 1007.6
20260506043017 10 132 0.0 3.2 0.58 2.16 0.25 92 1007.9
20260506041525 10 350 0.0 4.8 0.61 2.08 0.18 92 1007.9
20260506040017 11 268 1.6 6.4 0.48 1.91 0.00 91 1008.0
20260506034518 12 250 0.0 1.6 0.28 1.65 1.65 91 1007.8
20260506033017 13 44 1.6 4.8 0.25 1.57 1.57 93 1007.5
20260506031524 14 238 0.0 0.0 0.15 1.47 1.47 94 1007.6
20260506030023 14 238 0.0 0.0 0.15 1.42 1.42 93 1007.7
20260506024520 14 238 0.0 1.6 0.13 1.37 1.37 93 1007.9
20260506023003 14 238 0.0 1.6 0.20 1.32 1.32 93 1008.1
20260506021506 14 243 0.0 1.6 0.20 1.32 1.32 93 1008.2
20260506020014 14 243 0.0 3.2 0.15 1.27 1.27 93 1008.0
20260506014519 14 262 0.0 3.2 0.13 1.24 1.24 93 1007.8
20260506013026 14 258 0.0 3.2 0.00 1.12 1.12 93 1007.5
20260506011504 13 194 0.0 1.6 0.00 1.12 1.12 93 1007.3
20260506010008 14 194 0.0 1.6 0.00 1.12 1.12 92 1007.3
20260506004519 14 191 0.0 3.2 0.00 1.12 1.12 92 1007.4
20260506003016 14 277 0.0 1.6 0.03 1.12 1.12 92 1007.4
20260506001520 14 278 0.0 1.6 0.05 1.12 1.12 91 1007.4
20260506000016 14 175 0.0 1.6 0.15 1.12 1.12 90 1007.4
20260505234517 14 175 0.0 0.0 0.97 1.12 1.12 90 1007.5
20260505233016 14 175 0.0 1.6 0.94 1.09 1.09 89 1007.8
20260505231522 15 307 0.0 6.4 0.91 1.07 1.07 87 1007.6
20260505230026 15 160 1.6 33.8 0.81 0.97 0.97 84 1007.9
20260505224507 19 310 1.6 4.8 0.00 0.15 0.15 68 1006.5
20260505223012 19 274 1.6 4.8 0.00 0.15 0.15 68 1006.6
20260505221516 19 240 1.6 4.8 0.00 0.15 0.15 68 1006.8
20260505220033 18 256 1.6 4.8 0.00 0.15 0.15 70 1006.8
20260505214541 18 243 0.0 3.2 0.00 0.15 0.15 72 1006.8
20260505213008 18 268 0.0 1.6 0.00 0.15 0.15 71 1007.0
20260505211512 18 205 0.0 1.6 0.00 0.15 0.15 74 1007.1
20260505210018 18 271 0.0 3.2 0.00 0.15 0.15 73 1007.2
20260505204530 18 252 1.6 6.4 0.00 0.15 0.15 73 1007.3
20260505203024 17 291 3.2 12.9 0.05 0.15 0.15 74 1007.5
20260505201512 17 147 4.8 16.1 0.05 0.15 0.15 76 1007.5